Thompson, Manitoba

3:17 AM CDT on May 27, 2017 (GMT -0500)
Thompson

Weather History for CYTH - January, 2013

Change the Weather History Date:

Thursday, January 31, 2013

  Actual Average Record
Temperature  
Mean Temperature -20 °F -  
Max Temperature -15 °F 7 °F 23 °F (2005)
Min Temperature -27 °F -12 °F -43 °F (2008)
Degree Days  
Heating Degree Days 85    
Moisture  
Dew Point -29 °F    
Average Humidity 61    
Maximum Humidity 70    
Minimum Humidity 41    
Precipitation  
Precipitation 0.00 in 0.02 in - ()
Sea Level Pressure  
Sea Level Pressure 30.24 in    
Wind  
Wind Speed 6 mph ()    
Max Wind Speed 14 mph    
Max Gust Speed 21 mph    
Visibility 14.9 miles    
Events Snow    
Averages and records for this station are not official NWS values.
T = Trace of Precipitation, MM = Missing Value Source: Averaged Metar Reports

Daily Weather History Graph

Daily Weather History Graph

Search for Another Location

Airport or City:

Trip Planner

Search our weather history database for the weather conditions in past years. The results will help you decide how hot, cold, wet, or windy it might be!

Date:

Astronomy

Jan. 31, 2013 Rise Set
Actual Time 8:26 AM CST 5:04 PM CST
Civil Twilight 7:45 AM CST 5:45 PM CST
Nautical Twilight 7:00 AM CST 6:29 PM CST
Astronomical Twilight 6:17 AM CST 7:13 PM CST
Moon 11:15 PM CST (1/31) 9:26 AM CST (1/31)
Length of Visible Light 9h 59m
Length of Day
8h 37m
Waning Gibbous, 79% of the Moon is Illuminated
Jan 31
Waning Gibbous
Feb 3
Last Quarter
Feb 10
New
Feb 17
First Quarter
Feb 25
Full

Hourly Weather History & Observations

Time (CST) Temp. Windchill Dew Point Humidity Pressure Visibility Wind Dir Wind Speed Gust Speed Precip Events Conditions
12:00 AM -21 °F - -28 °F 53% 30.20 in 15 mi NW 3.5 mph - -   Partly Cloudy
12:00 AM -20.2 °F -30.9 °F -27.4 °F 69% 30.20 in 15.0 mi NW 3.5 mph - N/A   Scattered Clouds
12:17 AM - - - N/A% - 15.0 mi West 2.3 mph - N/A   Unknown
1:00 AM -18.4 °F - -27.4 °F 63% 30.20 in 15.0 mi West 2.3 mph - N/A Snow Light Snow
2:00 AM -16.6 °F -31.3 °F -23.8 °F 70% 30.21 in 15.0 mi NW 5.8 mph - N/A Snow Light Snow
3:00 AM -14.8 °F -35.6 °F -23.8 °F 64% 30.22 in 15.0 mi NNW 11.5 mph - N/A Snow Light Snow
4:00 AM -14.8 °F -37.5 °F -23.8 °F 64% 30.23 in 15.0 mi NNW 13.8 mph - N/A Snow Light Snow
5:00 AM -20.2 °F -44.4 °F -29.2 °F 63% 30.25 in 15.0 mi NW 13.8 mph 20.7 mph N/A Snow Light Snow
5:46 AM - - - N/A% - 15.0 mi NW 8.1 mph - N/A   Scattered Clouds
6:00 AM -22 °F - -31 °F 46% 30.27 in 15 mi NW 9.2 mph - -   Partly Cloudy
6:00 AM -22.0 °F -41.0 °F -31.0 °F 63% 30.27 in 15.0 mi NW 8.1 mph - N/A   Partly Cloudy
7:00 AM -23.8 °F -41.6 °F -31.0 °F 69% 30.27 in 15.0 mi NW 6.9 mph - N/A   Partly Cloudy
7:49 AM - - - N/A% - 15.0 mi NW 8.1 mph - N/A   Unknown
9:00 AM -23.8 °F -41.6 °F -32.8 °F 63% 30.27 in 12.0 mi WNW 6.9 mph - N/A Snow Light Snow
10:00 AM -22.0 °F -41.0 °F -32.8 °F 57% 30.28 in 15.0 mi NW 8.1 mph - N/A Snow Light Snow
10:38 AM - - - N/A% - 15.0 mi NW 9.2 mph - N/A   Clear
11:00 AM -22.0 °F -42.3 °F -31.0 °F 63% 30.27 in 15.0 mi WNW 9.2 mph - N/A   Clear
12:00 PM -20 °F - -30 °F 41% 30.27 in 15 mi WNW 8.1 mph - -   Partly Cloudy
12:00 PM -20.2 °F -37.3 °F -31.0 °F 58% 30.27 in 15.0 mi WNW 6.9 mph - N/A   Clear
1:00 PM -18.4 °F -37.9 °F -29.2 °F 58% 30.26 in 15.0 mi WNW 9.2 mph - N/A   Partly Cloudy
2:00 PM -16.6 °F -35.7 °F -27.4 °F 58% 30.24 in 15.0 mi WNW 9.2 mph - N/A   Partly Cloudy
3:00 PM -14.8 °F -34.6 °F -25.6 °F 58% 30.23 in 15.0 mi WNW 10.4 mph - N/A   Clear
4:00 PM -16.6 °F -37.9 °F -27.4 °F 58% 30.24 in 15.0 mi WNW 11.5 mph - N/A   Clear
5:00 PM -18.4 °F -36.6 °F -29.2 °F 58% 30.24 in 15.0 mi WNW 8.1 mph - N/A   Clear
6:00 PM -20 °F - -30 °F 43% 30.25 in 15 mi WNW 5.8 mph - -  
6:00 PM -20.2 °F -35.5 °F -29.2 °F 63% 30.25 in 15.0 mi WNW 5.8 mph - N/A   Clear
7:00 PM -22.0 °F -41.0 °F -31.0 °F 63% 30.23 in 15.0 mi West 8.1 mph - N/A   Clear
8:00 PM -23.8 °F -43.2 °F -31.0 °F 69% 30.23 in 15.0 mi West 8.1 mph - N/A   Clear
9:00 PM -25.6 °F -43.8 °F -32.8 °F 69% 30.22 in 15.0 mi West 6.9 mph - N/A   Clear
10:00 PM -25.6 °F -43.8 °F -32.8 °F 69% 30.20 in 15.0 mi West 6.9 mph - N/A   Clear
11:00 PM -27.4 °F -47.6 °F -34.6 °F 69% 30.19 in 15.0 mi West 8.1 mph - N/A   Clear